Regional Weather Roundup
Issued by NWS Kansas City/Pleasant Hill, MO

Home | Current Version | Previous Version | Text Only | Print | Product List | Glossary On
Versions: 1 2 3 4 5 6 7 8 9 10 11 12 13 14 15 16 17 18 19 20 21 22 23 24 25 26 27 28 29 30 31 32 33 34 35 36 37 38 39 40 41 42 43 44 45 46 47 48 49 50
000
ASUS43 KEAX 191604
RWREAX

WEATHER ROUNDUP FOR EASTERN KANSAS AND NORTHWEST MISSOURI
NATIONAL WEATHER SERVICE KANSAS CITY/PLEASANT HILL MO
1100 AM CDT FRI SEP 19 2014

KSZ040-057-103>105-MOZ028-029-037-043-191700-
...KANSAS CITY METROPOLITAN AREA...

CITY           SKY/WX    TMP DP  RH WIND       PRES   REMARKS
K.C. INTL      CLOUDY    65  64  97 S9        30.03S FOG
K.C. DOWNTOWN  CLOUDY    67  63  87 S8        30.03S FOG
LEES SUMMIT    CLOUDY    65  62  90 VRB6      30.05S FOG
OLATHE - IXD   FOG       65  64  97 S9        30.03F VSB 1
OLATHE - OJC   CLOUDY    64  64 100 S8        30.03S FOG
LAWRENCE       CLOUDY    66  63  90 S9        30.03S FOG

$$

MOZ001>008-011>017-020>025-030>033-038>040-044>046-053-054-191700-
...NORTHERN AND CENTRAL MISSOURI...

CITY           SKY/WX    TMP DP  RH WIND       PRES   REMARKS
ST. JOSEPH     CLOUDY    67  63  87 S9        30.02S
MOSBY          CLOUDY    61  61 100 SE6       30.04F FOG
WHITEMAN AFB   CLOUDY    68  62  82 S10       30.05F
CLINTON        CLOUDY    68  64  88 SE6       30.06F
SEDALIA        PTSUNNY   71  61  70 S12       30.07S
WARSAW         NOT AVBL
MARSHALL       CLOUDY    72  63  73 SE10      30.07F
CHILLICOTHE      N/A     71  62  73 S9        30.06R
MOBERLY        SUNNY     73  55  53 SE10      30.08F
KIRKSVILLE       N/A     70  57  63 S12       30.07

$$

MOZ041-047>049-056>058-063>065-088>090-097-191700-
...EASTERN AND SOUTHERN MISSOURI...

CITY           SKY/WX    TMP DP  RH WIND       PRES   REMARKS
ST. LOUIS INTL MOSUNNY   71  56  58 E7        30.11F
SPIRIT OF STL  SUNNY     70  57  63 CALM      30.10S
JEFFERSON CITY SUNNY     71  58  63 VRB6      30.08F
MEXICO         SUNNY     75  61  60 SE9       30.09F
ROLLA          SUNNY     70  59  68 SE12      30.08F
LEBANON        SUNNY     70  61  73 SE7       30.10R
OSAGE BEACH    SUNNY     72  61  68 SE6       30.09S
SPRINGFIELD    PTSUNNY   70  63  78 S9        30.07S
BRANSON        CLOUDY    72  63  73 SE5       30.09R
NEVADA         SUNNY     73  64  73 S7        30.05F
JOPLIN         SUNNY     74  66  76 S6        30.05R
WEST PLAINS    SUNNY     70  58  65 E6        30.10S

$$

IAZ060-094-KSZ022-034>040-054-083-096-NEZ052-066-093-191700-
...KANSAS...SOUTHEAST NEBRASKA AND IOWA...

CITY           SKY/WX    TMP DP  RH WIND       PRES   REMARKS
TOPEKA         CLOUDY    69  66  90 SE9       30.01F
EMPORIA        CLOUDY    67  66  97 SE9       30.01F FOG
CHANUTE        CLOUDY    68  66  93 S7        30.03F FOG
WICHITA        SUNNY     80  66  62 S8        29.99F
OMAHA          PTSUNNY   70  63  78 S17       29.92S HAZE
LINCOLN        SUNNY     75  65  70 S15       29.91F
FALLS CITY     CLOUDY    66  63  90 S13       29.98S
LAMONI         CLOUDY    64  61  90 S12       30.03S
DES MOINES     PTSUNNY   70  61  73 S16G28    29.99S

$$




USA.gov is the U.S. government's official web portal to all federal, state and local government web resources and services.